• In Russia
  • List of Countries
  • For 7 days
  • Water Temperature
  • Satellite Maps
  • Weather Map
  • Weather Widgets
  • user-avatar
    Login

    Hourly Weather Nagykallo

    Today, 19 July, Thursday

    Time Temperature Precipitation Wind Pressure Humidity
    00:00 +19°C° 0.1 mm 2 mps 744 mmHg 93%
    01:00 +19°C° 0.1 mm 2 mps 744 mmHg 94%
    02:00 +19°C° 0 mm 2 mps 744 mmHg 94%
    03:00 +19°C° 0 mm 3 mps 744 mmHg 94%
    04:00 +19°C° 0 mm 3 mps 744 mmHg 94%
    05:00 +20°C° 0 mm 3 mps 745 mmHg 90%
    06:00 +21°C° 0 mm 4 mps 745 mmHg 85%
    07:00 +23°C° 0 mm 4 mps 745 mmHg 81%
    08:00 +25°C° 0.3 mm 5 mps 746 mmHg 77%
    09:00 +26°C° 0.3 mm 5 mps 746 mmHg 73%
    10:00 +27°C° 0.3 mm 5 mps 746 mmHg 69%
    11:00 +27°C° 0.9 mm 5 mps 746 mmHg 68%
    12:00 +27°C° 0.9 mm 5 mps 746 mmHg 67%
    13:00 +28°C° 0.9 mm 5 mps 746 mmHg 66%
    14:00 +28°C° 0.6 mm 5 mps 746 mmHg 67%
    15:00 +28°C° 0.6 mm 5 mps 746 mmHg 67%
    16:00 +27°C° 0.6 mm 5 mps 746 mmHg 67%
    17:00 +26°C° 0.4 mm 4 mps 746 mmHg 72%
    18:00 +25°C° 0.4 mm 3 mps 746 mmHg 76%
    19:00 +24°C° 0.4 mm 2 mps 746 mmHg 80%
    20:00 +22°C° 0.1 mm 3 mps 746 mmHg 81%
    21:00 +21°C° 0.1 mm 3 mps 747 mmHg 82%
    22:00 +21°C° 0.1 mm 3 mps 747 mmHg 83%
    23:00 +20°C° 0 mm 3 mps 747 mmHg 84%

    Tomorrow, 20 July, Friday

    Time Temperature Precipitation Wind Pressure Humidity
    00:00 +20°C° 0 mm 3 mps 747 mmHg 85%
    01:00 +19°C° 0 mm 3 mps 747 mmHg 86%
    02:00 +19°C° 0 mm 3 mps 747 mmHg 86%
    03:00 +19°C° 0 mm 2 mps 747 mmHg 87%
    04:00 +19°C° 0 mm 2 mps 747 mmHg 87%
    05:00 +19°C° 0 mm 2 mps 747 mmHg 85%
    06:00 +20°C° 0 mm 2 mps 747 mmHg 83%
    07:00 +21°C° 0 mm 3 mps 747 mmHg 81%
    08:00 +22°C° 0.3 mm 3 mps 748 mmHg 79%
    09:00 +24°C° 0.3 mm 3 mps 748 mmHg 77%
    10:00 +24°C° 0.3 mm 3 mps 748 mmHg 75%
    11:00 +25°C° 0.4 mm 4 mps 748 mmHg 72%
    12:00 +26°C° 0.4 mm 4 mps 748 mmHg 68%
    13:00 +27°C° 0.4 mm 5 mps 748 mmHg 65%
    14:00 +27°C° 0.1 mm 4 mps 747 mmHg 63%
    15:00 +27°C° 0.1 mm 4 mps 747 mmHg 62%
    16:00 +28°C° 0.1 mm 3 mps 747 mmHg 61%
    17:00 +26°C° 0.1 mm 3 mps 747 mmHg 66%
    18:00 +25°C° 0.1 mm 2 mps 747 mmHg 70%
    19:00 +24°C° 0.1 mm 2 mps 748 mmHg 75%
    20:00 +23°C° 0 mm 2 mps 748 mmHg 77%
    21:00 +21°C° 0 mm 2 mps 748 mmHg 79%
    22:00 +20°C° 0 mm 2 mps 748 mmHg 81%
    23:00 +20°C° 0 mm 2 mps 748 mmHg 82%

    Day after tomorrow, 21 July, Saturday

    Time Temperature Precipitation Wind Pressure Humidity
    00:00 +19°C° 0 mm 2 mps 748 mmHg 84%
    01:00 +19°C° 0 mm 2 mps 748 mmHg 85%
    02:00 +18°C° 0 mm 2 mps 748 mmHg 86%
    03:00 +18°C° 0 mm 2 mps 748 mmHg 87%
    04:00 +18°C° 0 mm 1 mps 748 mmHg 88%
    05:00 +19°C° 0 mm 2 mps 748 mmHg 83%
    06:00 +20°C° 0 mm 2 mps 748 mmHg 79%
    07:00 +23°C° 0 mm 2 mps 748 mmHg 74%
    08:00 +24°C° 0 mm 2 mps 748 mmHg 68%
    09:00 +26°C° 0 mm 1 mps 748 mmHg 62%
    10:00 +27°C° 0 mm 1 mps 748 mmHg 57%
    11:00 +28°C° 0 mm 1 mps 748 mmHg 54%
    12:00 +29°C° 0 mm 2 mps 748 mmHg 51%
    13:00 +29°C° 0 mm 2 mps 748 mmHg 48%
    14:00 +30°C° 0 mm 2 mps 748 mmHg 49%
    15:00 +30°C° 0 mm 2 mps 747 mmHg 49%
    16:00 +30°C° 0 mm 2 mps 747 mmHg 49%
    17:00 +28°C° 0 mm 1 mps 747 mmHg 54%
    18:00 +27°C° 0 mm 1 mps 747 mmHg 59%
    19:00 +24°C° 0 mm 0 mps 747 mmHg 64%
    20:00 +25°C° 1.3 mm 1 mps 747 mmHg 69%
    21:00 +23°C° 1.3 mm 1 mps 747 mmHg 75%
    22:00 +22°C° 1.3 mm 1 mps 747 mmHg 80%
    23:00 +22°C° 1.1 mm 1 mps 747 mmHg 82%

    22 July, Sunday

    Time Temperature Precipitation Wind Pressure Humidity
    00:00 +22°C° 1.1 mm 1 mps 747 mmHg 85%
    01:00 +22°C° 1.1 mm 1 mps 747 mmHg 87%
    02:00 +21°C° 0.8 mm 1 mps 746 mmHg 89%
    03:00 +21°C° 0.8 mm 1 mps 746 mmHg 90%
    04:00 +19°C° 0.8 mm 2 mps 746 mmHg 92%
    05:00 +20°C° 0.5 mm 2 mps 746 mmHg 89%
    06:00 +21°C° 0.5 mm 2 mps 746 mmHg 87%
    07:00 +23°C° 0.5 mm 2 mps 746 mmHg 84%
    08:00 +24°C° 0 mm 2 mps 746 mmHg 79%
    09:00 +25°C° 0 mm 2 mps 746 mmHg 74%
    10:00 +27°C° 0 mm 2 mps 745 mmHg 70%
    11:00 +27°C° 0.3 mm 2 mps 745 mmHg 66%
    12:00 +28°C° 0.3 mm 2 mps 745 mmHg 63%
    13:00 +29°C° 0.3 mm 2 mps 744 mmHg 60%
    14:00 +29°C° 1.4 mm 2 mps 744 mmHg 61%
    15:00 +29°C° 1.4 mm 2 mps 744 mmHg 61%
    16:00 +29°C° 1.4 mm 2 mps 744 mmHg 62%
    17:00 +28°C° 1.8 mm 2 mps 744 mmHg 68%
    18:00 +26°C° 1.8 mm 2 mps 744 mmHg 74%
    19:00 +24°C° 1.8 mm 2 mps 744 mmHg 81%
    20:00 +24°C° 0.7 mm 2 mps 744 mmHg 83%
    21:00 +23°C° 0.7 mm 2 mps 743 mmHg 85%
    22:00 +21°C° 0.7 mm 3 mps 743 mmHg 88%
    23:00 +21°C° 2 mm 2 mps 743 mmHg 89%

    23 July, Monday

    Time Temperature Precipitation Wind Pressure Humidity
    00:00 +20°C° 2 mm 2 mps 743 mmHg 90%
    01:00 +20°C° 2 mm 2 mps 744 mmHg 92%
    02:00 +20°C° 0.7 mm 2 mps 743 mmHg 92%
    03:00 +19°C° 0.7 mm 2 mps 743 mmHg 92%
    04:00 +19°C° 0.7 mm 2 mps 743 mmHg 92%
    05:00 +20°C° 0.1 mm 3 mps 744 mmHg 89%
    06:00 +21°C° 0.1 mm 3 mps 744 mmHg 86%
    07:00 +22°C° 0.1 mm 3 mps 744 mmHg 83%
    08:00 +24°C° 0.1 mm 3 mps 744 mmHg 77%
    09:00 +26°C° 0.1 mm 3 mps 744 mmHg 72%
    10:00 +27°C° 0.1 mm 4 mps 744 mmHg 67%
    11:00 +28°C° 1 mm 4 mps 744 mmHg 65%
    12:00 +28°C° 1 mm 4 mps 744 mmHg 64%
    13:00 +29°C° 1 mm 3 mps 744 mmHg 63%
    14:00 +29°C° 0.3 mm 4 mps 744 mmHg 64%
    15:00 +29°C° 0.3 mm 4 mps 744 mmHg 65%
    16:00 +29°C° 0.3 mm 4 mps 744 mmHg 66%
    17:00 +27°C° 0.3 mm 4 mps 744 mmHg 69%
    18:00 +26°C° 0.3 mm 5 mps 745 mmHg 73%
    19:00 +25°C° 0.3 mm 5 mps 745 mmHg 76%
    20:00 +23°C° 0.5 mm 5 mps 745 mmHg 79%
    21:00 +22°C° 0.5 mm 5 mps 746 mmHg 81%
    22:00 +21°C° 0.5 mm 5 mps 746 mmHg 83%
    23:00 +21°C° 0 mm 5 mps 746 mmHg 83%

    24 July, Tuesday

    Time Temperature Precipitation Wind Pressure Humidity
    00:00 +21°C° 0 mm 5 mps 746 mmHg 84%
    01:00 +20°C° 0 mm 4 mps 746 mmHg 84%
    02:00 +20°C° 0 mm 4 mps 746 mmHg 84%
    03:00 +20°C° 0 mm 4 mps 746 mmHg 83%
    04:00 +20°C° 0 mm 4 mps 747 mmHg 83%
    05:00 +20°C° 0 mm 4 mps 747 mmHg 82%
    06:00 +21°C° 0 mm 4 mps 747 mmHg 80%
    07:00 +22°C° 0 mm 5 mps 747 mmHg 78%
    08:00 +23°C° 0 mm 4 mps 747 mmHg 74%
    09:00 +26°C° 0 mm 4 mps 747 mmHg 69%
    10:00 +27°C° 0 mm 4 mps 747 mmHg 64%
    11:00 +28°C° 0 mm 4 mps 747 mmHg 60%
    12:00 +29°C° 0 mm 4 mps 747 mmHg 57%
    13:00 +30°C° 0 mm 4 mps 747 mmHg 53%
    14:00 +30°C° 0 mm 4 mps 747 mmHg 54%
    15:00 +30°C° 0 mm 4 mps 747 mmHg 55%
    16:00 +30°C° 0 mm 4 mps 747 mmHg 55%
    17:00 +29°C° 0 mm 4 mps 747 mmHg 60%
    18:00 +27°C° 0 mm 4 mps 747 mmHg 65%
    19:00 +25°C° 0 mm 3 mps 748 mmHg 70%
    20:00 +23°C° 0.1 mm 4 mps 748 mmHg 72%
    21:00 +23°C° 0.1 mm 4 mps 748 mmHg 74%
    22:00 +22°C° 0.1 mm 4 mps 749 mmHg 76%
    23:00 +21°C° 0 mm 3 mps 749 mmHg 78%
    Show more